Location: Brno
(49.2000°N, 16.6330°E)
Time: 20:30:46
(UTC+02:00)

Vanguard 3 - Pass Details

Date: 02 August 2021
Orbit: 510 x 3260 km, 33.3° (Epoch: 20 September)

Event Time Altitude Azimuth Distance (km) Brightness Sun altitude
Rises 16:40:15 0° 199° (SSW) 5,042 11.6 35.8°
Reaches altitude 10° 16:44:08 10° 186° (S) 4,465 11.3 35.2°
Maximum altitude 16:53:40 24° 139° (SE) 4,261 10.8 33.7°
Drops below altitude 10° 17:06:12 10° 96° (E) 6,021 11.2 31.7°
Sets 17:12:37 0° 85° (E) 7,205 11.4 30.6°
